sat.trackr.live / text

‹ back to catalog

STARLINK-2711

NORAD 48673 · 2021-044AM

PAYLOAD ACTIVE UNKNOWN

§ Identity

Operator
Country
US
Launch date
2021-05-26
Launch site
AFETR
Launch vehicle
Mass (kg)
RCS (m²)

Purposes: comms

External: N2YO · Heavens-Above · Gunter

§ Orbital elements

Epoch: 2026-05-25T04:50:18.121632Z

Period
94.16 min
Inclination
53.1578°
Eccentricity
0.0001200
Mean motion
15.29350597 rev/d
Perigee alt
476.9 km
Apogee alt
478.6 km
Semi-major
6,855.9 km
B*
8.7647e-6
RAAN
118.5321°
Arg perigee
87.8172°
Mean anomaly
272.2966°
Rev number
27,552

§ Raw data

STARLINK-27111 48673U 21044AM  26145.20159863 -.00000103  00000+0  87647-5 0  99922 48673  53.1578 118.5321 0001200  87.8172 272.2966 15.29350597275527

JSON: /api/v1/satellites/48673 · /tle

For live sub-satellite position, see the globe view (requires WebGL).

§ Visibility from observer

Set your observer location to see the next 7 days of passes ≥ 10°. The values pass through the URL so the page stays shareable.

No JS? Fill the form by hand. The geolocation button needs JavaScript.